TimePDT,TemperatureF,Dew PointF,Humidity,Sea Level PressureIn,VisibilityMPH,Wind Direction,Wind SpeedMPH,Gust SpeedMPH,PrecipitationIn,Events,Conditions,WindDirDegrees,DateUTC
12:53 AM,64.4,57.2,77,30.06,9.0,Calm,Calm,-,N/A,,Clear,0,2012-10-05 07:53:00
1:53 AM,64.9,59.0,81,30.06,8.0,Calm,Calm,-,N/A,,Clear,0,2012-10-05 08:53:00
2:19 AM,64.4,59.0,83,30.06,8.0,Calm,Calm,-,N/A,,Mostly Cloudy,0,2012-10-05 09:19:00
2:53 AM,64.0,59.0,84,30.05,9.0,Calm,Calm,-,N/A,,Mostly Cloudy,0,2012-10-05 09:53:00
3:09 AM,62.6,57.2,82,30.05,8.0,Calm,Calm,-,N/A,,Scattered Clouds,0,2012-10-05 10:09:00
3:26 AM,62.6,57.2,82,30.04,8.0,ENE,3.5,-,N/A,,Mostly Cloudy,60,2012-10-05 10:26:00
3:53 AM,64.0,57.9,80,30.04,8.0,Calm,Calm,-,N/A,,Overcast,0,2012-10-05 10:53:00
4:53 AM,64.9,59.0,81,30.03,8.0,ENE,4.6,-,N/A,,Overcast,70,2012-10-05 11:53:00
5:16 AM,64.4,59.0,83,30.03,8.0,Calm,Calm,-,N/A,,Overcast,0,2012-10-05 12:16:00
5:53 AM,64.9,57.9,78,30.04,8.0,Calm,Calm,-,N/A,,Overcast,0,2012-10-05 12:53:00
6:10 AM,66.2,57.2,73,30.04,8.0,Calm,Calm,-,N/A,,Overcast,0,2012-10-05 13:10:00
6:53 AM,66.0,57.0,73,30.04,8.0,Calm,Calm,-,N/A,,Overcast,0,2012-10-05 13:53:00
7:53 AM,66.9,57.0,70,30.05,7.0,Calm,Calm,-,N/A,,Overcast,0,2012-10-05 14:53:00
8:53 AM,66.9,57.0,70,30.06,8.0,Variable,3.5,-,N/A,,Overcast,0,2012-10-05 15:53:00
9:53 AM,69.1,57.9,68,30.06,8.0,Calm,Calm,-,N/A,,Overcast,0,2012-10-05 16:53:00
10:53 AM,72.0,57.9,61,30.05,8.0,Variable,3.5,-,N/A,,Mostly Cloudy,0,2012-10-05 17:53:00
11:00 AM,73.4,57.2,57,30.05,8.0,NNE,3.5,-,N/A,,Partly Cloudy,20,2012-10-05 18:00:00
11:53 AM,73.9,57.9,57,30.03,9.0,SW,8.1,-,N/A,,Partly Cloudy,220,2012-10-05 18:53:00
12:53 PM,73.9,57.9,57,30.01,9.0,Variable,5.8,-,N/A,,Partly Cloudy,0,2012-10-05 19:53:00
1:53 PM,75.0,57.9,55,29.99,10.0,South,8.1,-,N/A,,Partly Cloudy,180,2012-10-05 20:53:00
2:53 PM,75.0,59.0,57,29.96,10.0,South,9.2,-,N/A,,Clear,180,2012-10-05 21:53:00
3:53 PM,77.0,57.9,52,29.94,10.0,WNW,4.6,-,N/A,,Clear,290,2012-10-05 22:53:00
4:53 PM,75.9,55.9,50,29.94,10.0,South,8.1,-,N/A,,Clear,180,2012-10-05 23:53:00
5:53 PM,73.0,59.0,61,29.93,10.0,SSE,8.1,-,N/A,,Clear,160,2012-10-06 00:53:00
6:53 PM,69.1,60.1,73,29.94,10.0,South,9.2,-,N/A,,Scattered Clouds,180,2012-10-06 01:53:00
7:53 PM,69.1,60.1,73,29.95,10.0,South,5.8,-,N/A,,Clear,190,2012-10-06 02:53:00
8:53 PM,69.1,61.0,75,29.96,10.0,South,3.5,-,N/A,,Clear,170,2012-10-06 03:53:00
9:53 PM,68.0,61.0,78,29.96,10.0,Calm,Calm,-,N/A,,Clear,0,2012-10-06 04:53:00
10:53 PM,68.0,61.0,78,29.96,10.0,ENE,3.5,-,N/A,,Clear,70,2012-10-06 05:53:00
11:53 PM,66.0,61.0,84,29.96,10.0,Calm,Calm,-,N/A,,Clear,0,2012-10-06 06:53:00